Preview of NWS' New Version of Forecast
This preview is not operational and should not be used for support decisions.

Regional Weather Roundup (RWR)

Issued by National Weather Service (NWS)

                            
000
ASUS43 KBIS 231702
RWRND 

NORTH DAKOTA REGIONAL WEATHER ROUNDUP
NATIONAL WEATHER SERVICE BISMARCK ND
1200 PM CDT TUE APR 23 2019

NOTE: "FAIR" INDICATES FEW OR NO CLOUDS BELOW 12,000 FEET WITH NO
SIGNIFICANT WEATHER AND/OR OBSTRUCTIONS TO VISIBILITY.


NDZ001>003-009>011-017-231800-
NORTHWEST NORTH DAKOTA
  
CITY           SKY/WX    TMP DP  RH WIND       PRES   REMARKS
WILLISTON      CLOUDY    59  43  55 SW10      29.84F                  
MINOT          CLOUDY    61  37  41 S16G25    29.86F                  
MINOT AFB      CLOUDY    60  38  43 S17G25    29.82F                  
$$
 
NDZ018>021-031>035-040>046-231800-
SOUTHWEST NORTH DAKOTA
  
CITY           SKY/WX    TMP DP  RH WIND       PRES   REMARKS
BISMARCK       PTSUNNY   67  36  31 S28G38    29.95F                  
DICKINSON      CLOUDY    67  38  34 SW16      29.90F                  
GARRISON         N/A     65  35  33 SW21G32   29.88F                  
HETTINGER ARPT MOSUNNY   64  39  39 SW18      29.96F                  
$$
 
NDZ004>008-012>016-024-026-027-054-231800-
NORTHEAST NORTH DAKOTA
  
CITY           SKY/WX    TMP DP  RH WIND       PRES   REMARKS
GRAND FORKS    CLOUDY    58  40  51 S16       30.02F                  
DEVILS LAKE    PTSUNNY   61  37  41 S18       29.95F                  
$$
 
NDZ022-023-025-028>030-036>039-047>053-231800-
SOUTHEAST NORTH DAKOTA
  
CITY           SKY/WX    TMP DP  RH WIND       PRES   REMARKS
FARGO          PTSUNNY   62  39  42 S10G20    30.07F                  
JAMESTOWN      MOSUNNY   65  41  41 S15G26    30.00F                  
$$